Regional Weather Roundup
Issued by NWS Nashville, TN

Home | Current Version | Previous Version | Text Only | Print | Product List | Glossary On
Versions: 1 2 3 4 5 6 7 8 9 10 11 12 13 14 15 16 17 18 19 20 21 22 23 24 25 26 27
000
ASUS44 KOHX 281210
RWROHX
MIDDLE TENNESSEE HOURLY WEATHER ROUNDUP
NATIONAL WEATHER SERVICE NASHVILLE TN
700 AM CDT SAT MAY 28 2016

NOTE: "FAIR" INDICATES FEW OR NO CLOUDS BELOW 12,000 FEET WITH
NO SIGNIFICANT WEATHER AND/OR OBSTRUCTIONS TO VISIBILITY.

* THESE REPORTS ARE NOT UNDER NWS QUALITY CONTROL AND MAY NOT
  REPORT WEATHER SUCH AS PRECIPITATION AND FOG.


TNZ005>011-023>034-057-059-062>066-078-080-281300
...NORTHERN MIDDLE TENNESSEE...

CITY           SKY/WX    TMP DP  RH WIND       PRES   REMARKS
CLARKSVILLE    CLOUDY    71  66  84 S5        30.03R
CROSSVILLE     SUNNY     68  60  75 S6        30.14S
DICKSON        CLOUDY    70  64  83 S3        30.05R
LEBANON        CLOUDY    70  64  81 SE5       30.04R
NASHVILLE      CLOUDY    73  63  70 S5        30.06R
SMYRNA         CLOUDY    73  65  76 S3        30.07R
SPARTA         SUNNY     73  63  68 S5        30.09R
$$
TNZ056-058-060-061-075>077-079-093>097-281300
...SOUTHERN MIDDLE TENNESSEE...

CITY           SKY/WX    TMP DP  RH WIND       PRES   REMARKS
COLUMBIA       SUNNY     73  73 100 SE5       30.04R
FAYETTEVILLE   SUNNY     73  61  64 S9        30.08R
LEWISBURG      CLOUDY    71  64  78 CALM      30.06R
MCMINNVILLE    SUNNY     73  63  68 CALM      30.09R
SHELBYVILLE    SUNNY     72  64  78 SE5       30.08R
TULLAHOMA      SUNNY     70  66  88 SE3       30.09R
WINCHESTER     SUNNY     72  61  68 S6        30.09R
$$


...KEY TO REMARKS...
VSB - VISIBILITY IN MILES
WCI - WIND CHILL INDEX
HX  - HEAT INDEX





USA.gov is the U.S. government's official web portal to all federal, state and local government web resources and services.